Moscow/Sheretyevo International Airport

Airport
ICAO code: 
UUEE
IATA Code: 
SVO
Summary
ICAO Region: 
EUR
Territory: 
Location: 
Khimki, Moscow Oblast,
Serving: 
Moscow
Elevation: 
622 ft
Coordinates: 
Aerial View: 
55° 58' 16.561" N, 37° 24' 48.744" E
Metar
Observation
UUEE 251300Z 28005MPS 250V330 CAVOK 13/M02 Q1013 R24L/CLRD62 R24C/CLRD62 NOSIG
Station
Moscow / Sheremet'Ye
Date/Time
2022-05-25 13:00:00
Wind direction
280°
Lowest cloud amount
clouds and visibility OK
Temperature
13°C
Dew point
-2°C
Humidity
35%
QNH
1013 hPa
Weather condition
n/a

Description

Sheremetyevo International Airport, is an international airport located 29 km north-west of Moscow, Russia. It is a hub for the passenger operations of the Russian international airline Aeroflot, and one of the three major airports serving Moscow along with Domodedovo International Airport and Vnukovo.

Climatology

Humid Continental climate (Köppen climate classification Dfb) - Variable weather patterns and a large seasonal temperature variance. Summers are often warm and humid with frequent thunderstorms and winters can be very cold with frequent snowfall and persistent snow cover.

Runways

Designator Length Width Surface Rops
07L/25R 3550 60 CON Yes/Yes
07R/25L 3700 60 CON Yes/Yes
Airport map: 
Aerial View: 

SKYbrary Partners:

Safety knowledge contributed by: